AirNav   Air Wisconsin Up To $57,000 Bonus
 
 424 users online  

39P Strom Field Airport
Morton, Washington, USA

GOING TO MORTON?


FAA INFORMATION EFFECTIVE 09 SEPTEMBER 2021

Location

FAA Identifier: 39P
Lat/Long: 46-33-01.2990N 122-15-59.8530W
46-33.021650N 122-15.997550W
46.5503608,-122.2666258
(estimated)
Elevation: 941 ft. / 287 m (estimated)
Variation: 20E (1985)
Time zone: UTC -7 (UTC -8 during Standard Time)
Zip code: 98356

Airport Operations

Airport use: Open to the public
Activation date: 08/1964
Control tower: no
ARTCC: SEATTLE CENTER
FSS: SEATTLE FLIGHT SERVICE STATION
NOTAMs facility: SEA (NOTAM-D service available)
Attendance: UNATNDD
Wind indicator: lighted
Segmented circle: no
Lights: ACTVT MIRL RY 07/25 - CTAF.
Beacon: white-green (lighted land airport)
ACTVT ROTG BCN - CTAF.

Airport Communications

CTAF: 122.9

Nearby radio navigation aids

VOR radial/distance  VOR name  Freq  Var
OLMr115/36.3OLYMPIA VORTAC113.4019E

Airport Services

Parking: tiedowns
Airframe service: NONE
Powerplant service: NONE

Runway Information

Runway 7/25

Dimensions: 1810 x 40 ft. / 552 x 12 m
Surface: asphalt, in fair condition
Runway edge lights: medium intensity
Runway edge markings: MARKINGS FADED.
RUNWAY 7  RUNWAY 25
Latitude: 46-33.022283N46-33.021000N
Longitude: 122-16.213367W122-15.781733W
Traffic pattern: leftleft
Runway heading: 070 magnetic, 090 true250 magnetic, 270 true
Displaced threshold: 200 ft.no
Markings: basic, in poor conditionbasic, in poor condition
Obstructions: 50 ft. pline, 324 ft. from runway, 2:1 slope to clear
+3 FT FENCE AT 35 FT FM THLD AND 32 FT R; GUARD RAIL AND ROAD 98 FT FM THLD; 15 FT SIGN, 18 FT R, 65 FT FM THLD; TREE, 51 FT HIGH, 2 FT R, 120 FT FM THLD.
41 ft. trees, 1318 ft. from runway, 40 ft. both sides of centerline, 27:1 slope to clear
RWY 25 +2 FT ROAD AND GUARD RAIL AT 15 FT FM THLD, TREE, 15 FT HIGH, 49 FT R, 74 FT FM THLD, POLE, 8 FT HIGH, 79 FT R, 8 FT FM THLD.

Airport Ownership and Management from official FAA records

Ownership: Publicly-owned
Owner: CITY OF MORTON
PO BOX 1089
MORTON, WA 98356
Phone 360-496-6881
Manager: ANDERS PULLMAN
PO BOX 1089, PO BOX 1089
MORTON, WA 98356
Phone (360) 496-5210
PUB. WKS. SUP.

Airport Operational Statistics

Aircraft based on the field: 6
Single engine airplanes: 4
Ultralights: 2
    
Aircraft operations: avg 22/day *
82% transient general aviation
18% local general aviation
<1% military
* for 12-month period ending 31 December 2017

Additional Remarks

TREES NEAR RWY.
TREES, STREAM, AND BRUSH IN PRIM SFC.
DEER AND ELK ON & INVOF RWY.
DITCH PARL RWY ON EASTSIDE.
FOR CD CTC SEATTLE ARTCC AT 253-351-3694.

Instrument Procedures

There are no published instrument procedures at 39P.

Some nearby airports with instrument procedures:

KTDO - Ed Carlson Memorial Field - South Lewis County Airport (23 nm W)
KCLS - Chehalis-Centralia Airport (30 nm W)
KPLU - Pierce County Airport - Thun Field (33 nm N)
KGRF - Gray Army Airfield (Joint Base Lewis-McChord) (34 nm N)
KOLM - Olympia Regional Airport (36 nm NW)
 
Loc | Ops | Rwys | IFR | FBO | Links
Com | Nav | Svcs | Stats | Notes
Area around 39P (Strom Field Airport)
 
Road maps at: MapQuest Bing Google
 
Aerial photo
WARNING: Photo may not be current or correct
Aerial photo of 39P (Strom Field Airport)
Photo taken 01-Sep-2012
looking west.

Do you have a better or more recent aerial photo of Strom Field Airport that you would like to share? If so, please send us your photo.

 
Sectional chart

 
Airport distance calculator
Flying to Strom Field Airport? Find the distance to fly.

From to 39P

Sunrise and sunset
Times for 23-Sep-2021
 Local
(UTC-7)
 Zulu
(UTC)
Morning civil twilight06:2813:28
Sunrise06:5813:58
Sunset19:0402:04
Evening civil twilight19:3502:35

Current date and time
Zulu (UTC)  23-Sep-2021 07:26:06
Local (UTC-7)  23-Sep-2021 00:26:06
 
METAR
KCLS 
30nm W 
230715Z AUTO 25004KT 10SM OVC015 14/14 A3029 RMK AO2
KPLU 
33nm N 
230715Z AUTO 00000KT 2 1/2SM BR BKN004 OVC012 13/13 A3028 RMK AO2
KGRF 
33nm N 
230711Z AUTO 25007KT 9SM BKN005 OVC015 14/13 A3027 RMK AO2 SLP254 $
KTCM 
35nm N 
230713Z AUTO 26005KT 10SM OVC007 15/14 A3027 RMK AO2 CIG 006 RWY34 SLP254 $
KOLM 
36nm NW 
230708Z AUTO 19003KT 10SM FEW006 OVC019 13/13 A3028 RMK AO2 T01330128
KKLS 
37nm SW 
230656Z AUTO VRB03KT 10SM OVC011 15/13 A3029 RMK AO2 SLP259 T01500128
TAF
KGRF 
33nm N 
230500Z 2305/2411 23004KT 1200 BR OVC005 QNH3027INS BECMG 2317/2318 03005KT 9999 NSW BKN015 OVC040 QNH3029INS BECMG 2321/2322 03008KT 9999 FEW020 SCT120 QNH3024INS BECMG 2401/2402 02006KT 9999 SKC QNH3020INS TX19/2322Z TN12/2310Z
KTCM 
35nm N 
230500Z 2305/2411 VRB06KT 9999 OVC010 QNH3026INS BECMG 2308/2309 VRB06KT 4800 BR OVC005 QNH3028INS BECMG 2312/2313 21006KT 0800 FG OVC002 QNH3027INS BECMG 2315/2316 32006KT 4800 BR BKN010 QNH3028INS BECMG 2318/2319 01006KT 9999 NSW BKN020 QNH3024INS BECMG 2322/2323 02012KT 9999 FEW020 SCT110 QNH3021INS BECMG 2402/2403 03008KT 9999 SKC QNH3013INS TX20/2322Z TN11/2313Z
KOLM 
36nm NW 
230536Z 2306/2406 00000KT P6SM OVC006 FM231700 00000KT P6SM SCT006 OVC011 FM232000 01006KT P6SM SCT250
NOTAMs
Click for the latest NOTAMs
NOTAMs are issued by the DoD/FAA and will open in a separate window not controlled by AirNav.

 

 
 

Would you like to see your business listed on this page?

 If your business provides an interesting product or service to pilots, flight crews, aircraft, or users of the Strom Field Airport, you should consider listing it here.  To start the listing process, click on the button below
 
Add a business
 

Other Pages about Strom Field Airport

Update a link
 
Copyright © AirNav, LLC. All rights reserved. Privacy Policy  Contact